Terug naar catalogus

STARLINK-4428

ActiefCommunicatieSSO
NORAD 53672·PAYLOAD·🇺🇸 United States

Gelanceerd Aug 31, 2022 vanaf Vandenberg Space Force Base

Loading…

Volgende Passages (komende 24 uur)

TLE

VersSource: CelesTrak SupGP

Epoch: Sep 15, 2026, 01:54 UTC

1 53672C 22105AA  26258.07965278  .00066827  00000+0  46395-2 0  2585
2 53672  97.2839 132.1781 0002438  86.6235  91.9833 15.05625299    11

Volg STARLINK-4428 in realtime met AllMySat

Download on the App Store